Regional Weather Roundup
Issued by NWS

Home | Current Version | Previous Version | Text Only | Print | Product List | Glossary On
Versions: 1 2 3 4 5 6 7 8 9 10 11 12 13 14 15 16 17 18 19 20 21 22 23 24 25 26 27
000
ASUS44 KBMX 301910
RWRAL

ALABAMA REGIONAL WEATHER ROUNDUP
NATIONAL WEATHER SERVICE BIRMINGHAM AL
200 PM CDT SAT APR 30 2016

NOTE: "FAIR" INDICATES FEW OR NO CLOUDS BELOW 12,000 FEET
WITH NO SIGNIFICANT WEATHER AND/OR OBSTRUCTIONS TO VISIBILITY.

THE REMARK "TC" DENOTES TEMPERATURE IN DEGREES CELSIUS.

ALZ001>011-014-016>018-020-302000-
NORTH ALABAMA

CITY           SKY/WX    TMP DP  RH WIND       PRES   REMARKS
MUSCLE SHOALS  NOT AVBL
HUNTSVILLE     PTSUNNY   79  63  57 SW8       29.90F
DECATUR        MOSUNNY   78  65  63 W8        29.91S
HALEYVILLE     CLOUDY    76  67  73 SW8       29.93S
GADSDEN        PTSUNNY   84  66  54 SW10G18   29.91F
$$

ALZ012-013-022-023-030>036-040>044-302000-
WEST CENTRAL ALABAMA

CITY           SKY/WX    TMP DP  RH WIND       PRES   REMARKS
TUSCALOOSA     CLOUDY    81  67  62 S13       29.89F
$$

ALZ015-024>027-033>036-040>044-302000-
CENTRAL ALABAMA

CITY           SKY/WX    TMP DP  RH WIND       PRES   REMARKS
BIRMINGHAM     CLOUDY    84  63  49 S13G20    29.92F
MONTGOMERY     CLOUDY    86  65  49 S10G16    29.91R
SHELBY CO ARPT CLOUDY    82  65  56 VRB7      29.91S
MAXWELL AFB    CLOUDY    85  66  51 VRB7      29.90S
GREENVILLE     FAIR      83  66  56 S6        29.91S
$$

ALZ019-021-028-029-037-038-045>048-302000-
EAST CENTRAL ALABAMA

CITY           SKY/WX    TMP DP  RH WIND       PRES   REMARKS
ANNISTON       MOSUNNY   86  62  44 S13G20    29.91F
ALEXANDER CITY MOSUNNY   84  72  67 S12       29.92S HX  90
AUBURN         CLOUDY    84  68  58 S14G20    29.93F
$$

ALZ051>064-302000-
SOUTHWEST ALABAMA

CITY           SKY/WX    TMP DP  RH WIND       PRES   REMARKS
MOBILE         CLOUDY    80  72  76 SE17G28   29.90S
BROOKLEY FIELD CLOUDY    80  74  81 SE18      29.90F
EVERGREEN      PTSUNNY   84  66  54 S13       29.92S
$$

ALZ049-050-065>069-302000-
SOUTHEAST ALABAMA

CITY           SKY/WX    TMP DP  RH WIND       PRES   REMARKS
DOTHAN         MOSUNNY   86  64  47 S14G21    29.95F
OZARK          PTSUNNY   87  67  51 S7        29.92F HX  90
TROY           PTSUNNY   86  66  51 S10       29.92F
EUFAULA        FAIR      90  66  45 S9        29.90F HX  92
$$




USA.gov is the U.S. government's official web portal to all federal, state and local government web resources and services.